Location: Unspecified
(39.0670°S, 0.0000°E)
Time: 20:54:09
(UTC+00:00)

Envisat - Pass Details

Date: 04 July 2019
Orbit: 764 x 766 km, 98.1° (Epoch: 17 July)

Event Time Altitude Azimuth Distance (km) Brightness Sun altitude
Rises 06:44:24 0° 1° (N) 3,221 6.6 -6.9°
Reaches altitude 10° 06:46:44 10° 356° (N) 2,304 5.8 -6.5°
Maximum altitude 06:51:42 52° 280° (W) 953 3.2 -5.7°
Drops below altitude 10° 06:56:44 10° 203° (SSW) 2,336 5.1 -4.8°
Sets 06:59:07 0° 198° (SSW) 3,270 5.8 -4.4°
